Regional Weather Roundup
Issued by NWS

Home | Current Version | Previous Version | Graphics & Text | Print | Product List | Glossary On
Versions: 1 2 3 4 5 6 7 8 9 10 11 12 13 14 15 16 17 18 19 20 21 22 23 24 25 26 27 28 29 30 31 32 33 34 35 36 37 38 39 40 41 42 43 44 45 46 47 48 49 50
000
ASUS45 KABQ 020201
RWRNM
WEATHER ROUNDUP FOR NEW MEXICO
NATIONAL WEATHER SERVICE ALBUQUERQUE NM
800 PM MDT WED APR 01 2015

NOTE: "FAIR" MEANS FEW OR NO CLOUDS BELOW 12,000 FEET AGL WITH NO
       SIGNIFICANT WEATHER OR OBSTRUCTIONS TO VISION.

      THIS PRODUCT IS RELEASED AS TWO VERSIONS.  ONE VERSION NEAR
      THE TOP OF THE HOUR CONTAINING PRELIMINARY DATA FROM ALBUQUERQUE
      AND OTHER STATIONS.  A FINAL VERSION WITH ADDITIONAL DATA IS
      ISSUED ABOUT 10 MINUTES AFTER THE HOUR.

NMZ501-503-504-510>518-020300-
NORTHWEST PLATEAU/NORTHCENTRAL MOUNTAINS

CITY           SKY/WX    TMP DP  RH WIND       PRES   REMARKS
FARMINGTON     CLEAR     61  14  16 NW9       29.84S
SANTA FE       MOCLDY    59  16  18 W7        29.91R
TAOS           PTCLDY    52  18  25 W9        29.95R
ANGEL FIRE     MOCLDY    49  19  29 SW8       30.00R

$$
NMZ402-403-502-505>509-020300-
WESTCENTRAL MOUNTAINS/SOUTHWEST MOUNTAINS

CITY           SKY/WX    TMP DP  RH WIND       PRES   REMARKS
GALLUP         PTCLDY    60  13  15 SW16G25   29.94S
GRANTS         PTCLDY    57  19  22 W3        29.98R

$$
NMZ407-409-411-412-020300-
SOUTHERN DESERTS

CITY           SKY/WX    TMP DP  RH WIND       PRES   REMARKS
DEMING         CLEAR     71  31  22 W9        29.92R
HOLLOMAN AFB   CLEAR     73  26  17 SW14      29.86R
ALAMOGORDO     CLEAR     70  25  18 SW7       29.88R
T OR C         PTCLDY    72  25  17 W9        29.90R

$$
NMZ519>523-020300-
CENTRAL VALLEYS/CENTRAL HIGHLANDS

CITY           SKY/WX    TMP DP  RH WIND       PRES   REMARKS
ALBUQUERQUE    PTCLDY    69  22  16 NW15      29.89R
DOUBLE EAGLE   PTCLDY    64  21  19 W14G20    29.91R
MORIARTY ARPT  FAIR      59  18  20 W8        29.93R
CLINES CORNERS PTCLDY    56  19  23 W14       29.94R
BELEN          FAIR      67  15  13 W16       29.88R
SOCORRO        NOT AVBL

$$
NMZ524>526-539-540-020300-
SOUTHCENTRAL MOUNTAINS

CITY           SKY/WX    TMP DP  RH WIND       PRES   REMARKS
RUIDOSO        NOT AVBL

$$
NMZ527>531-020300-
NORTHEAST HIGHLANDS/NORTHEAST PLAINS

CITY           SKY/WX    TMP DP  RH WIND       PRES   REMARKS
LAS VEGAS      CLEAR     53  19  26 W10       29.92R
RATON          CLEAR     56  15  20 W13       29.83R
CLAYTON        PTCLDY    67  19  16 W15       29.73R

$$
NMZ532>537-020300-
EASTCENTRAL PLAINS

CITY           SKY/WX    TMP DP  RH WIND       PRES   REMARKS
TUCUMCARI      CLEAR     71  19  14 W12       29.74R
CANNON AFB     CLEAR     70  24  17 W14       29.80R
CLOVIS AIRPORT CLEAR     68  25  19 SW12      29.80R

$$
NMZ028-029-538-020300-
SOUTHEAST PLAINS

CITY           SKY/WX    TMP DP  RH WIND       PRES   REMARKS
ROSWELL        CLEAR     74  26  16 W14       29.80R
ARTESIA        CLEAR     72  32  23 SW13      29.82R
CARLSBAD       CLEAR     70  30  22 SW9       29.80R
HOBBS          CLEAR     70  32  24 SW8       29.83R


$$


USA.gov is the U.S. government's official web portal to all federal, state and local government web resources and services.